Regional Weather Roundup
Issued by NWS

Home | Current Version | Previous Version | Text Only | Print | Product List | Glossary On
Versions: 1 2 3 4 5 6 7 8 9 10 11 12 13 14 15 16 17 18 19 20 21 22 23 24 25 26 27 28 29 30 31 32 33 34 35 36 37 38 39 40 41 42 43 44 45 46 47 48 49 50
000
ASUS42 KTBW 051117
RWRFL
FLORIDA REGIONAL WEATHER ROUNDUP
NATIONAL WEATHER SERVICE TAMPA BAY RUSKIN FL
600 AM EST MON DEC 05 2016

NOTE: "FAIR" INDICATES FEW OR NO CLOUDS BELOW 12,000 FEET WITH NO
SIGNIFICANT WEATHER AND/OR OBSTRUCTIONS TO VISIBILITY.

FLZ001>010-012>015-112-114-115-051200-
PANHANDLE FLORIDA

CITY           SKY/WX    TMP DP  RH WIND       PRES   REMARKS
PENSACOLA      CLOUDY    65  63  93 N6        29.89R
PENSACOLA NAS  CLOUDY   N/A N/A N/A N8        29.88R
MILTON NAS     CLOUDY    63  63 100 VRB5      29.90
CRESTVIEW      CLOUDY    64  62  93 N7        29.90R
DUKE FIELD     CLOUDY    64  63  96 N6        29.88R
VALPARAISO     MOCLDY    65  64  96 SE5       29.87S
MARY ESTHER    MOCLDY    67  66  98 E5        29.86R
TRI COUNTY     MOCLDY    65  65 100 VRB3      29.89F
PANAMA CITY    FAIR      67  65  93 E13       29.87F
TYNDALL AFB    PTCLDY    67  66  97 SE7       29.89F
APALACHICOLA   CLOUDY    71  71 100 S9        29.92S

STATION/POSITION SKY/WX   TEMP    WIND        PRES    WAVE   SWELL
                          AIR SEA DIR/SP/G            HT/PER HT/PER
                          (F)     (DEG/KT/KT) (MB)    (FT/S) (FT/S)
30.1N   87.6W              71 69  160/ 10/ 14 1010.8R   4/ 7   3/ 7
29.2N   88.2W              74 76  120/ 16/ 17 1010.4
28.8N   86.0W              75 75              1012.2F   4/ 7   3/ 7
PANAMA CITY BEAC           67 68  120/ 13/ 15 1011.5F
TOWER C                    73     190/ 12/ 13 1013.7F
28.5N   84.5W              76 74  160/ 10/ 14 1013.3F   4/ 6   3/ 6

$$
FLZ011-016>038-118-127-128-134-139-239-051200-
NORTH FLORIDA

CITY           SKY/WX    TMP DP  RH WIND       PRES   REMARKS
MARIANNA       CLOUDY    67  67 100 SE6       29.89F
TALLAHASSEE    CLOUDY    69  68  96 E5        29.93F
PERRY          CLOUDY    73  70  89 S6        29.95F
CROSS CITY     PTCLDY    63  63 100 CALM      29.97S FOG
LAKE CITY      FAIR      64  64 100 S5        29.97S
GAINESVILLE    PTCLDY    63  61  93 CALM      29.98S FOG
WILLISTON      CLEAR     66  64  94 CALM      29.98F FOG
PALATKA        FAIR      66  66 100 S5        29.99F
MAYPORT NAS    PTCLDY    66  64  93 S5        29.99R
JACKSONVILLE   CLEAR     65  65 100 S7        29.98R
JAX NAS        MOCLDY    67  65  93 S6        29.99S
FERNANDINA BEA FAIR      70  66  88 S5        29.97F
ST AUGUSTINE   PTCLDY    67  65  93 CALM      30.00S

STATION/POSITION SKY/WX   TEMP    WIND        PRES    WAVE   SWELL
                          AIR SEA DIR/SP/G            HT/PER HT/PER
                          (F)     (DEG/KT/KT) (MB)    (FT/S) (FT/S)
SHELL POINT      NOT AVBL
KEATON BEACH               70     160/ 15/ 18 1013.8F
CEDAR KEY                  67     170/  5/  6 1014.9F
FERNANDINA                 67 67  160/  5/  7 1014.9S
30.7N   81.3W                 65                N/A     3/ 5
MAYPORT                    67 67  200/  3/  4 1015.6R
31.4N   80.9W              67 65  190/ 12/ 14 1015.0R   4/ 7   3/ 7
ST AUGUSTINE               68 68  190/  8/  9 1016.3F

$$
FLZ040-043>046-052-053-057-058-063-144-051200-
INTERIOR CENTRAL FLORIDA

CITY           SKY/WX    TMP DP  RH WIND       PRES   REMARKS
OCALA          CLOUDY    64  61  88 S5        29.99S
THE VILLAGES     N/A     66  66 100 CALM      29.90S
LEESBURG       CLEAR     67  65  93 S5        30.00S
SANFORD        CLEAR     67  65  93 S3        30.00S
ORLANDO EXEC   CLEAR     64  63  96 CALM      30.00S FOG
ORLANDO INTL   PTCLDY    64  63  96 S6        30.00S FOG
KISSIMMEE      CLEAR     67  66  97 S6        30.01S FOG
WINTER HAVEN   CLEAR     69  67  93 S7        30.01S
LAKELAND       CLEAR     70  70 100 S8        30.00S
BARTOW         FOG       63 N/A N/A SE3       30.00S VSB 1/4
OKEECHOBEE     PTCLDY    63  63 100 SE3       30.02R FOG

$$
FLZ041-047-054-059-064-141-147-051200-
EAST CENTRAL FLORIDA

CITY           SKY/WX    TMP DP  RH WIND       PRES   REMARKS
DAYTONA BEACH  PTCLDY    67  67 100 S3        30.00R
DELAND         CLEAR     66  64  94 SE3       29.99F
JFK SPACE CTR  PTCLDY    66  64  94 S2        29.99F FOG
CAPE CANAVERAL FOG       68  68 100 S5        29.99F VSB 3/4
PATRICK AFB    CLEAR     69  69 100 S3        30.00S
MELBOURNE      FOG       66  66 100 CALM      30.01R VSB 1
VERO BEACH     CLEAR     69  69 100 S6        30.01S
FT PIERCE      PTCLDY    63  63 100 CALM      30.01S
STUART         CLEAR     72  70  94 S6        30.02S

STATION/POSITION SKY/WX   TEMP    WIND        PRES    WAVE   SWELL
                          AIR SEA DIR/SP/G            HT/PER HT/PER
                          (F)     (DEG/KT/KT) (MB)    (FT/S) (FT/S)
TRIDENT PIER               70 72  160/  5/  5 1015.8F
28.4N   80.5W                 71                N/A     3/ 5

$$
FLZ050-056-061-142-242-148-248-149-249-151-251-155-255-
160-260-051200-
WEST CENTRAL FLORIDA

CITY           SKY/WX    TMP DP  RH WIND       PRES   REMARKS
CRYSTAL RIVER  FAIR      66  66 100 CALM      29.98S
INVERNESS      FOG       63  63 100 CALM      29.99S VSB 1/4
BROOKSVILLE      N/A    N/A N/A N/A MISG        N/A
CLEARWATER AIR FAIR      68  68 100 SE7       29.97F
ST PETE CLEARW CLEAR     69  67  93 SE8       29.97F
TAMPA INTL     CLEAR     70  68  93 SE6       29.98F
TAMPA EXEC     CLEAR     72  68  88 SE5       29.99F
PLANT CITY     CLEAR     70  70 100 SE6       30.01F
MACDILL AFB    CLEAR     68  68 100 S8        29.97F
PETER O KNIGHT PTCLDY    72  70  94 SE3       29.98F
ST PETERSBURG  CLEAR     68  67  96 S7        29.96F
SARASOTA       PTCLDY    67  66  97 E7        29.97S
VENICE           N/A     68  68 100 E7        29.99S

STATION/POSITION SKY/WX   TEMP    WIND        PRES    WAVE   SWELL
                          AIR SEA DIR/SP/G            HT/PER HT/PER
                          (F)     (DEG/KT/KT) (MB)    (FT/S) (FT/S)
CLEARWATER BEACH           70 69  130/  7/ 10 1014.9F
MIDDLE TAMPA BAY           68     140/  7/  8 1015.5F
VENICE                     69 71   80/  6/  7 1015.1F

$$
FLZ066-069-070-075>078-162-262-165-265-051200-
SOUTHWEST FLORIDA AND KEYS

CITY           SKY/WX    TMP DP  RH WIND       PRES   REMARKS
PUNTA GORDA    PTCLDY    66  66 100 SE5       30.01R FOG
FT MYERS       CLOUDY    69  68  96 SE5       29.99S
SOUTHWEST INTL CLOUDY    68  67  96 CALM      30.00R FOG
NAPLES         MOCLDY    72  70  93 E7        29.99S
MARCO ISLAND   PTCLDY    70  68  94 E5        30.00R
MARATHON       PTCLDY    80  72  76 SE8G17    29.99R
KEY WEST NAS   CLOUDY    76  72  87 SE14      29.98R
KEY WEST INTL  CLOUDY    78  75  90 SE14      29.98S

STATION/POSITION SKY/WX   TEMP    WIND        PRES    WAVE   SWELL
                          AIR SEA DIR/SP/G            HT/PER HT/PER
                          (F)     (DEG/KT/KT) (MB)    (FT/S) (FT/S)
NAPLES                        72              1015.5R
26.0N   85.6W              77 77  110/ 17/ 19 1012.2F   5/ 8   3/ 8
DRY TORTUGAS               79     140/ 14/ 15 1014.2S
SAND KEY                   79     140/ 15/ 17 1015.4F
LONG KEY                   78 77  130/ 14/ 16 1015.7R
MOLASSES REEF              78 79  130/ 17/ 20 1015.8F

$$
FLZ067-068-071>074-168-172>174-051200-
SOUTHEAST FLORIDA

CITY           SKY/WX    TMP DP  RH WIND       PRES   REMARKS
W PALM BEACH   PTCLDY    75  70  84 SE12      30.02R
FT LAUDER-EXEC PTCLDY    76  70  82 SE8       30.01R
FT LAUDERDALE  MOCLDY    77  72  84 SE14      30.00R
POMPANO BEACH  MOCLDY    77  72  84 SE13      30.01R
PEMBROKE PINES CLEAR     76  71  85 SE7       30.02R
OPA LOCKA      PTCLDY   N/A N/A N/A SE8       30.01S
MIAMI          PTCLDY    75  72  90 SE9       30.01R
WEST KENDALL   PTCLDY    76  71  85 SE7       30.01R
HOMESTEAD      PTCLDY    76  74  93 E8        30.00R

STATION/POSITION SKY/WX   TEMP    WIND        PRES    WAVE   SWELL
                          AIR SEA DIR/SP/G            HT/PER HT/PER
                          (F)     (DEG/KT/KT) (MB)    (FT/S) (FT/S)
PORT EVERGLADES            78     130/  9/ 14 1016.2
VIRGINIA KEY               78 82  130/ 13/ 15 1016.5R
LAKE WORTH                 78 78  150/ 15/ 18 1016.1R
FOWEY ROCKS                78 77  120/ 20/ 21 1016.5R

$$




USA.gov is the U.S. government's official web portal to all federal, state and local government web resources and services.